Regional Weather Roundup
Issued by NWS Spokane, WA

Home | Current Version | Previous Version | Text Only | Print | Product List | Glossary On
Versions: 1 2 3 4 5 6 7 8 9 10 11 12 13 14 15 16 17 18 19 20 21 22 23 24 25 26 27 28 29 30 31 32 33 34 35 36 37 38 39 40 41 42 43 44 45 46 47 48 49 50
000
NZUS01 KOTX 250210
RWROTX
EASTERN WASHINGTON/NORTHERN IDAHO ROUNDUP
NATIONAL WEATHER SERVICE, SPOKANE WA
700 PM PDT FRI OCT 24 2014

Note: "fair" indicated few or no clouds below 12,000 feet with no
significant weather and/or obstructions to visibility.

...NORTHEAST WASHINGTON AND NORTHERN IDAHO PANHANDLE...

CITY           SKY/WX    TMP DP  RH WIND       PRES   REMARKS
SPOKANE INTL   CLOUDY    50  43  77 NE6       30.01S
SPOKANE DOWNTO CLOUDY    53  43  68 E6        30.02S
COEUR D ALENE  CLOUDY    48  41  76 N9        30.01F
DEER PARK      CLOUDY    49  41  74 N9        30.02F
SANDPOINT      CLOUDY    48  41  76 N8        30.04F

...SOUTHEAST WASHINGTON AND SOUTHERN IDAHO PANHANDLE...

CITY           SKY/WX    TMP DP  RH WIND       PRES   REMARKS
WALLA WALLA    CLOUDY    53  51  93 S6        29.94F
PULLMAN/MOSCOW LGT RAIN  50  46  86 E8        30.02S FOG
LEWISTON       CLOUDY    54  50  86 E3        29.98F
LOWELL           N/A     51  50  96 CALM      30.04F

...COLUMBIA BASIN...

CITY           SKY/WX    TMP DP  RH WIND       PRES   REMARKS
EPHRATA        LGT RAIN  52  45  77 N6        29.97F
MOSES LAKE     LGT RAIN  52  48  86 N3        29.98F
TRI CITIES     CLOUDY    51  49  92 NW9       29.97F
HERMISTON      CLOUDY    54  48  80 CALM      29.93F
PENDLETON      CLOUDY    51  48  89 NE6       29.92F

...EAST SLOPES CASCADES...

CITY           SKY/WX    TMP DP  RH WIND       PRES   REMARKS
THE DALLES     CLOUDY    52  50  93 CALM      29.92F
YAKIMA         RAIN      49  46  90 CALM      29.98F FOG
ELLENSBURG     LGT RAIN  48  44  86 S3        29.97F
WENATCHEE      LGT RAIN  51  41  68 CALM      29.99F
OMAK           CLOUDY    46  40  79 NW3       30.01F

...SOUTHERN BRITISH COLUMBIA...

CITY           SKY/WX    TMP DP  RH WIND       PRES   REMARKS
PENTICTON      CLOUDY    43  37  81 VRB2      30.02F
CASTLEGAR      CLOUDY    48  41  76 N8        30.05
CRANBROOK      MOCLDY    45  34  65 SE3       30.07S

...WESTERN MONTANA...

CITY           SKY/WX    TMP DP  RH WIND       PRES   REMARKS
MISSOULA       LGT RAIN  47  47 100 CALM      30.10S

...NEIGHBORING CITIES...

CITY           SKY/WX    TMP DP  RH WIND       PRES   REMARKS
SEATTLE        CLOUDY    54  46  74 N9        29.87S
CALGARY        MOCLDY    45  14  29 W13G22    29.99R



USA.gov is the U.S. government's official web portal to all federal, state and local government web resources and services.